Powrót do katalogu

BREEZE-M R/B

AktywnyHEO
NORAD 36793·ROCKET BODY·🇷🇺 Russia

Wystrzelony Jul 10, 2010 z Baikonur Cosmodrome

Loading…

Następne Przeloty (najbliższe 24 godziny)

TLE

ŚwieżeSource: Space-Track

Epoka: Sep 14, 2026, 11:50 UTC

1 36793U 10034B   26257.49358096 -.00000329  00000-0  00000-0 0  9997
2 36793  18.5595  83.8137 5551460 118.3565 292.3899  2.04332290120761

Śledź BREEZE-M R/B w czasie rzeczywistym z AllMySat

Download on the App Store